DW9727 Weather Reports


time (UTC)temp
C
wind
direction
speed
KPH
gust
KPH
rain 1hr
cm
rain 24hr
cm
rain mn
cm
humidity
%
barometer
mb
20260502231710 21 243 14.5 29.0 0.00 0.00 0.00 25 1015.0
20260502230710 21 221 22.5 38.6 0.00 0.00 0.00 24 1015.1
20260502225710 21 189 17.7 29.0 0.00 0.00 0.00 25 1015.0
20260502224710 21 232 16.1 27.4 0.00 0.00 0.00 27 1015.2
20260502223710 21 249 11.3 29.0 0.00 0.00 0.00 27 1015.3
20260502222711 21 254 14.5 25.7 0.00 0.00 0.00 28 1015.5
20260502221710 21 236 11.3 19.3 0.00 0.00 0.00 27 1015.6
20260502220711 21 275 12.9 19.3 0.00 0.00 0.00 26 1015.8
20260502214711 20 229 14.5 25.7 0.00 0.00 0.00 25 1016.3
20260502213710 20 222 9.7 22.5 0.00 0.00 0.00 26 1016.3
20260502212710 20 267 16.1 32.2 0.00 0.00 0.00 26 1016.6
20260502211711 20 249 9.7 22.5 0.00 0.00 0.00 27 1016.8
20260502210710 20 250 4.8 19.3 0.00 0.00 0.00 32 1017.1
20260502205710 20 257 19.3 32.2 0.00 0.00 0.00 29 1017.2
20260502203710 20 294 14.5 20.9 0.00 0.00 0.00 31 1017.5
20260502202710 20 247 14.5 32.2 0.00 0.00 0.00 28 1017.7
20260502201710 20 266 9.7 24.1 0.00 0.00 0.00 32 1018.0
20260502192710 18 306 11.3 19.3 0.00 0.00 0.00 34 1018.7
20260502191711 18 154 6.4 24.1 0.00 0.00 0.00 31 1018.7
20260502190710 18 232 4.8 19.3 0.00 0.00 0.00 32 1018.8
20260502185711 18 312 8.0 16.1 0.00 0.00 0.00 33 1019.1
20260502184711 18 319 8.0 22.5 0.00 0.00 0.00 35 1019.3
20260502183710 17 246 12.9 22.5 0.00 0.00 0.00 34 1019.3
20260502181710 17 227 9.7 19.3 0.00 0.00 0.00 33 1019.7
20260502180710 17 285 12.9 22.5 0.00 0.00 0.00 40 1020.0
20260502163711 15 219 9.7 22.5 0.00 0.00 0.00 39 1021.3
20260502162710 15 220 9.7 19.3 0.00 0.00 0.00 42 1021.4
20260502161710 15 267 11.3 24.1 0.00 0.00 0.00 42 1021.5
20260502160710 15 249 11.3 19.3 0.00 0.00 0.00 42 1021.7
20260502150711 12 263 8.0 19.3 0.00 0.00 0.00 46 1022.2
20260502130711 2 284 1.6 4.8 0.00 0.00 0.00 83 1022.6
20260502122710 0 263 0.0 1.6 0.00 0.00 0.00 85 1022.6
20260502121710 0 264 1.6 3.2 0.00 0.00 0.00 85 1022.5
20260502120710 0 264 1.6 3.2 0.00 0.00 0.00 84 1022.6
20260502115710 0 264 0.0 3.2 0.00 0.00 0.00 84 1022.4
20260502114710 0 307 0.0 0.0 0.00 0.00 0.00 84 1022.1
20260502113710 0 307 0.0 0.0 0.00 0.00 0.00 84 1022.2
20260502112710 -1 308 0.0 1.6 0.00 0.00 0.00 83 1022.2
20260502111710 0 308 1.6 3.2 0.00 0.00 0.00 82 1022.2
20260502110711 0 305 1.6 3.2 0.00 0.00 0.00 82 1022.3
20260502105710 0 292 1.6 4.8 0.00 0.00 0.00 81 1022.3
20260502103711 0 284 0.0 0.0 0.00 0.00 0.00 81 1022.4
20260502102711 0 236 0.0 3.2 0.00 0.00 0.00 80 1022.3
20260502101710 0 236 1.6 3.2 0.00 0.00 0.00 80 1022.4
20260502100710 0 236 0.0 0.0 0.00 0.00 0.00 79 1022.3
20260502090711 0 236 1.6 3.2 0.00 0.00 0.00 79 1022.0
20260502070710 1 307 1.6 3.2 0.00 0.00 0.00 74 1021.8
20260502065710 1 304 1.6 3.2 0.00 0.00 0.00 74 1021.8
20260502064710 1 304 3.2 4.8 0.00 0.00 0.00 73 1021.8
20260502063710 1 304 1.6 3.2 0.00 0.00 0.00 72 1021.9
20260502062710 1 304 3.2 4.8 0.00 0.00 0.00 71 1021.9
20260502061710 2 304 1.6 3.2 0.00 0.00 0.00 71 1021.9
20260502060711 2 304 0.0 0.0 0.00 0.00 0.00 70 1021.8
20260502055711 2 0 0.0 0.0 0.00 0.00 0.00 70 1021.8
20260502051710 3 0 0.0 0.0 0.00 0.00 0.00 67 1021.6
20260502045710 3 0 0.0 0.0 0.00 0.00 0.00 64 1021.5
20260502044711 4 0 0.0 0.0 0.00 0.00 0.00 61 1021.5
20260502043710 4 0 0.0 0.0 0.00 0.00 0.00 62 1021.4
20260502042711 5 0 0.0 0.0 0.00 0.00 0.00 61 1021.4
20260502041710 5 0 0.0 3.2 0.00 0.00 0.00 56 1021.3
20260502040710 5 32 0.0 0.0 0.00 0.00 0.00 55 1021.3
20260502033711 6 21 1.6 4.8 0.00 0.00 0.00 53 1021.1
20260502032710 6 32 0.0 3.2 0.00 0.00 0.00 53 1021.1
20260502031711 6 32 0.0 3.2 0.00 0.00 0.00 52 1021.1
20260502030710 7 34 1.6 4.8 0.00 0.00 0.00 51 1021.0
20260502025712 7 28 1.6 4.8 0.00 0.00 0.00 50 1020.9
20260502023711 7 36 1.6 4.8 0.00 0.00 0.00 48 1020.6
20260502022710 8 33 1.6 4.8 0.00 0.00 0.00 47 1020.6
20260502021710 8 20 3.2 4.8 0.00 0.00 0.00 45 1020.4
20260502020710 8 5 3.2 8.0 0.00 0.00 0.00 45 1020.2
20260502015711 9 26 3.2 9.7 0.00 0.00 0.00 45 1020.1
20260502014710 10 24 3.2 4.8 0.00 0.00 0.00 43 1020.2
20260502013710 10 46 1.6 8.0 0.00 0.00 0.00 41 1019.9
20260502012711 11 16 4.8 8.0 0.00 0.00 0.00 40 1019.9
20260502011710 11 35 4.8 12.9 0.00 0.00 0.00 36 1019.8
20260502005711 12 41 6.4 19.3 0.00 0.00 0.00 36 1019.6
20260502004710 12 5 11.3 25.7 0.00 0.00 0.00 34 1019.4
20260502003710 13 331 9.7 19.3 0.00 0.00 0.00 35 1019.4
20260502002710 13 42 12.9 24.1 0.00 0.00 0.00 34 1019.2
20260502001711 13 335 9.7 16.1 0.00 0.00 0.00 33 1019.3
20260502000710 13 16 11.3 20.9 0.00 0.00 0.00 32 1019.3
20260501235710 13 5 11.3 20.9 0.00 0.00 0.00 32 1019.3
20260501234710 14 17 11.3 19.3 0.00 0.00 0.00 34 1019.2
20260501233710 14 335 11.3 24.1 0.00 0.00 0.00 32 1019.2
20260501232710 14 5 14.5 27.4 0.00 0.00 0.00 32 1019.0